Change the Weather History Date:

Thursday, November 8, 2012

  Actual Average Record
Temperature  
Mean Temperature 56 °F -  
Max Temperature 65 °F 61 °F 72 °F (2013)
Min Temperature 46 °F 46 °F 44 °F (2004)
Degree Days  
Heating Degree Days 10    
Growing Degree Days 6 (Base 50)    
Moisture  
Dew Point 48 °F    
Average Humidity 75    
Maximum Humidity 94    
Minimum Humidity 53    
Precipitation  
Precipitation 0.00 in 0.15 in - ()
Sea Level Pressure  
Sea Level Pressure 30.25 in    
Wind  
Wind Speed 7 mph ()    
Max Wind Speed 13 mph    
Max Gust Speed -    
Visibility 7.6 miles    
Events      
Averages and records for this station are not official NWS values.
T = Trace of Precipitation, MM = Missing Value Source: Averaged Metar Reports

Daily Weather History Graph

Daily Weather History Graph

Search for Another Location

Airport or City:

Trip Planner

Search our weather history database for the weather conditions in past years. The results will help you decide how hot, cold, wet, or windy it might be!

Date:

Astronomy

Nov. 08, 2012 Rise Set
Actual Time 6:51 AM CET 4:56 PM CET
Civil Twilight 6:21 AM CET 5:25 PM CET
Nautical Twilight 5:48 AM CET 5:58 PM CET
Astronomical Twilight 5:15 AM CET 6:31 PM CET
Moon 12:23 AM CET (11/8) 1:32 PM CET (11/8)
Length of Visible Light 11h 04m
Length of Day
10h 05m
Waning Crescent, 35% of the Moon is Illuminated
Nov 8
Waning Crescent
Nov 13
New
Nov 20
First Quarter
Nov 28
Full
Dec 6
Last Quarter

Hourly Weather History & Observations

Time (CET) Temp. Windchill Dew Point Humidity Pressure Visibility Wind Dir Wind Speed Gust Speed Precip Events Conditions
12:55 AM 50.0 °F - 42.8 °F 76% 30.27 in - NNE 11.5 mph - N/A   Clear
1:00 AM 50 °F - 44 °F 71% 30.30 in 6 mi NNE 11.5 mph - -  
2:55 AM 48.2 °F - 42.8 °F 82% 30.27 in - NNE 11.5 mph - N/A   Clear
3:55 AM 48.2 °F - 42.8 °F 82% 30.27 in - NNE 12.7 mph - N/A   Clear
4:00 AM 48 °F - 42 °F 72% 30.30 in 6 mi NNE 12.7 mph - -  
4:55 AM 48.2 °F - 42.8 °F 82% 30.27 in - NNE 10.4 mph - N/A   Clear
5:55 AM 46.4 °F 41.1 °F 42.8 °F 87% 30.27 in - NNE 11.5 mph - N/A   Clear
6:55 AM 46.4 °F 41.1 °F 41.0 °F 81% 30.27 in 6.2 mi NNE 11.5 mph - N/A   Partly Cloudy
7:55 AM 48.2 °F - 42.8 °F 82% 30.27 in 6.2 mi NNE 10.4 mph - N/A   Partly Cloudy
8:55 AM 57.2 °F - 50.0 °F 77% 30.27 in 6.2 mi NE 6.9 mph - N/A   Partly Cloudy
9:55 AM 60.8 °F - 51.8 °F 72% 30.27 in 6.2 mi SE 8.1 mph - N/A   Scattered Clouds
10:00 AM 62 °F - 51 °F 58% 30.30 in 9 mi SE 8.1 mph - -   Partly Cloudy
10:55 AM 62.6 °F - 51.8 °F 68% 30.30 in 6.2 mi SSE 6.9 mph - N/A   Partly Cloudy
11:55 AM 64.4 °F - 53.6 °F 68% 30.27 in 6.2 mi South 6.9 mph - N/A   Scattered Clouds
12:55 PM 64.4 °F - 51.8 °F 64% 30.27 in 6.2 mi South 6.9 mph - N/A   Unknown
1:00 PM 64 °F - 52 °F 57% 30.28 in 16 mi South 6.9 mph - -   Partly Cloudy
1:55 PM 64.4 °F - 53.6 °F 68% 30.24 in 6.2 mi South 5.8 mph - N/A   Partly Cloudy
2:55 PM 66.2 °F - 51.8 °F 60% 30.21 in 6.2 mi WSW 4.6 mph - N/A   Partly Cloudy
3:55 PM 64.4 °F - 51.8 °F 64% 30.21 in 6.2 mi SW 3.5 mph - N/A   Partly Cloudy
4:00 PM 64 °F - 51 °F 53% 30.23 in 16 mi SW 3.5 mph - -   Scattered Clouds
4:55 PM 62.6 °F - 51.8 °F 68% 30.21 in - SSW 3.5 mph - N/A   Clear
5:55 PM 59.0 °F - 51.8 °F 77% 30.21 in - North 2.3 mph - N/A   Clear
6:55 PM 53.6 °F - 50.0 °F 88% 30.21 in - NE 2.3 mph - N/A   Clear
7:00 PM 53 °F - 49 °F 82% 30.23 in 7 mi NE 2.3 mph - -  
8:55 PM 51.8 °F - 48.2 °F 88% 30.18 in - ENE 2.3 mph - N/A   Clear
9:55 PM 50.0 °F - 48.2 °F 94% 30.18 in - ENE 2.3 mph - N/A   Clear
10:00 PM 51 °F - 47 °F 83% 30.20 in 7 mi ENE 2.3 mph - -  
10:55 PM 50.0 °F - 46.4 °F 87% 30.18 in - East 2.3 mph - N/A   Clear
11:55 PM 50.0 °F - 46.4 °F 87% 30.18 in - ENE 2.3 mph - N/A   Clear